Gainesville, GA

12:18 PM EDT on October 14, 2019 (GMT -0400)
Gilmer Memorial

Weather History for KGVL - August, 2019

Change the Weather History Date:

Saturday, August 17, 2019

  Actual Average Record
Temperature  
Mean Temperature 82 °F 78 °F  
Max Temperature 93 °F 87 °F 102 °F (1954)
Min Temperature 70 °F 69 °F 59 °F (1967)
Cooling Degree Days 17 13  
Month to date cooling degree days 266 233  
Year to date cooling degree days 1339 1155  
Since 1 June cooling degree days 1003 980  
Growing Degree Days 32 (Base 50)    
Moisture  
Dew Point 67 °F    
Average Humidity 66    
Maximum Humidity 93    
Minimum Humidity 38    
Precipitation  
Precipitation T in 0.15 in 3.00 in (2015)
Month to date precipitation 2.13 2.68  
Year to date precipitation 36.97 34.50  
Sea Level Pressure  
Sea Level Pressure 29.98 in    
Wind  
Wind Speed 3 mph (NE)    
Max Wind Speed 12 mph    
Max Gust Speed 16 mph    
Visibility 10 miles    
Events      
T = Trace of Precipitation, MM = Missing Value Source: NWS Daily Summary

Daily Weather History Graph

Daily Weather History Graph

Search for Another Location

Airport or City:

Astronomy

Aug. 17, 2019 Rise Set
Actual Time 6:57 AM EDT 8:20 PM EDT
Civil Twilight 6:31 AM EDT 8:46 PM EDT
Nautical Twilight 5:59 AM EDT 9:18 PM EDT
Astronomical Twilight 5:26 AM EDT 9:51 PM EDT
Moon 9:52 PM EDT (8/17) 8:42 AM EDT (8/17)
Length of Visible Light 14h 15m
Length of Day
13h 22m
Waning Gibbous, 96% of the Moon is Illuminated
Aug 17
Waning Gibbous
Aug 23
Last Quarter
Aug 30
New
Sep 5
First Quarter
Sep 14
Full

Hourly Weather History & Observations

Time (EDT) Temp. Heat Index Dew Point Humidity Pressure Visibility Wind Dir Wind Speed Gust Speed Precip Events Conditions
12:53 AM 75.9 °F - 70.0 °F 82% 29.97 in 10.0 mi NNW 3.5 mph - N/A   Clear
1:53 AM 75.0 °F - 68.0 °F 79% 29.97 in 10.0 mi Calm Calm - N/A   Clear
3:53 AM 71.1 °F - 69.1 °F 93% 29.96 in 10.0 mi Calm Calm - N/A   Clear
4:53 AM 72.0 °F - 69.1 °F 91% 29.96 in 10.0 mi Calm Calm - N/A   Clear
5:53 AM 71.1 °F - 68.0 °F 90% 29.96 in 10.0 mi NNE 4.6 mph - N/A   Clear
6:53 AM 71.1 °F - 66.9 °F 87% 29.96 in 10.0 mi NNE 4.6 mph - N/A   Clear
7:53 AM 73.9 °F - 66.9 °F 79% 29.98 in 10.0 mi ENE 4.6 mph - N/A   Clear
8:53 AM 78.1 °F - 66.9 °F 68% 29.99 in 10.0 mi NNE 5.8 mph - N/A   Clear
9:53 AM 82.0 °F 84.9 °F 68.0 °F 62% 30.01 in 10.0 mi NE 5.8 mph - N/A   Clear
10:53 AM 84.9 °F 89.4 °F 70.0 °F 61% 30.03 in 10.0 mi Calm Calm - N/A   Clear
11:53 AM 86.0 °F 89.4 °F 68.0 °F 55% 30.03 in 10.0 mi South 4.6 mph - N/A   Clear
12:53 PM 86.0 °F 89.4 °F 68.0 °F 55% 30.03 in 10.0 mi WNW 5.8 mph - 0.00 in   Mostly Cloudy
1:53 PM 91.0 °F 91.9 °F 63.0 °F 39% 30.01 in 10.0 mi NNW 6.9 mph - N/A   Clear
2:53 PM 90.0 °F 90.6 °F 63.0 °F 40% 29.98 in 10.0 mi Variable 3.5 mph - N/A   Clear
3:53 PM 91.9 °F 94.1 °F 64.9 °F 41% 29.96 in 10.0 mi Calm Calm - N/A   Clear
4:53 PM 91.0 °F 92.6 °F 64.0 °F 41% 29.96 in 10.0 mi WNW 3.5 mph - N/A   Clear
5:53 PM 93.0 °F 94.6 °F 64.0 °F 38% 29.95 in 10.0 mi Calm Calm - N/A   Clear
6:53 PM 89.1 °F 92.1 °F 66.9 °F 48% 29.95 in 10.0 mi South 3.5 mph - N/A   Partly Cloudy
7:53 PM 87.1 °F 91.3 °F 69.1 °F 55% 29.96 in 10.0 mi South 3.5 mph - N/A   Clear
8:53 PM 82.9 °F 86.5 °F 69.1 °F 63% 29.96 in 10.0 mi SE 3.5 mph - N/A   Clear
9:53 PM 81.0 °F 84.4 °F 70.0 °F 69% 29.99 in 10.0 mi Calm Calm - N/A   Clear
10:53 PM 82.0 °F 84.5 °F 66.9 °F 60% 30.01 in 10.0 mi SE 4.6 mph - 0.00 in   Clear
11:53 PM 78.1 °F - 70.0 °F 76% 30.00 in 10.0 mi NNE 4.6 mph - N/A   Clear